Regional Weather Roundup
Issued by NWS San Angelo, TX

Home | Current Version | Previous Version | Text Only | Print | Product List | Glossary On
Versions: 1 2 3 4 5 6 7 8 9 10 11 12 13 14 15 16 17 18 19 20 21 22 23 24 25 26 27 28 29 30 31 32 33 34 35 36 37 38 39 40 41 42 43 44 45 46 47 48 49 50
000
ASUS44 KSJT 251210
RWRSJT
WEST CENTRAL TEXAS REGIONAL WEATHER ROUNDUP
NATIONAL WEATHER SERVICE SAN ANGELO TX
700 AM CDT WED APR 25 2018

NOTE: "FAIR" INDICATES FEW OR NO CLOUDS BELOW 12,000 FEET WITH NO
SIGNIFICANT WEATHER AND/OR OBSTRUCTIONS TO VISIBILITY.

TXZ049-054-064>066-071>073-076>078-098-099-113-114-127-128-139-140-
154-155-168>170-251300
...LOCATIONS ACROSS WEST CENTRAL TEXAS...

CITY           SKY/WX    TMP DP  RH WIND       PRES   REMARKS
SAN ANGELO     CLOUDY    64  58  80 NE15      30.11R
ABILENE        CLOUDY    51  43  74 N24G33    30.17S
DYESS AFB      CLOUDY    52  40  64 N24       30.19R
JUNCTION       CLOUDY    66  51  58 E8        30.10R
SWEETWATER     CLOUDY    50  43  75 N17G24    30.24R
BROWNWOOD      LGT RAIN  64  57  77 NW9       30.09F
COLEMAN        CLOUDY    56  51  84 N21G30    30.12R
SONORA         CLOUDY    66  50  55 E8        30.14R
OZONA          CLOUDY    66  50  55 NE9       30.13R
BRADY          CLOUDY    61  54  77 E7        30.09S
$$

TEXAS PANHANDLE/OKLAHOMA PANHANDLE

CITY           SKY/WX    TMP DP  RH WIND       PRES   REMARKS
AMARILLO       CLOUDY    36  35  96 N21G30    30.32R WCI  25
BORGER         RAIN      37  35  92 N9        30.35R WCI  30
CANADIAN       RAIN      38  37  96 NW9       30.32S WCI  32
DALHART        CLOUDY    36  35  96 N10       30.35S WCI  28
DUMAS          CLOUDY    36  34  93 N16       30.34S WCI  26
GUYMON         NOT AVBL
HEREFORD       CLOUDY    38  37  96 N18G25    30.33R WCI  29
PAMPA          LGT RAIN  36  35  95 N20       30.32S WCI  25
PERRYTON       CLOUDY    37  36  95 NW7       30.31R WCI  31
$$

SOUTHERN PANHANDLE/SOUTH PLAINS/ROLLING PLAINS

CITY           SKY/WX    TMP DP  RH WIND       PRES   REMARKS
LUBBOCK        LGT RAIN  40  39  97 N20G29    30.27R FOG     WCI  30
SNYDER         CLOUDY    49  40  71 N20G29    30.22R
CHILDRESS      LGT RAIN  43  43 100 N17       30.29R WCI  35
SEMINOLE       CLOUDY    44  38  78 N17G25    30.28R WCI  36
$$

PERMIAN BASIN

CITY           SKY/WX    TMP DP  RH WIND       PRES   REMARKS
MIDLAND        CLOUDY    53  40  61 NE25G32   30.20R
ODESSA         CLOUDY    51  39  63 NE20G30   30.22R
WINK           CLOUDY    52  38  58 N23G30    30.22R
$$

FAR WEST/SOUTHWEST MOUNTAINS/TRANS PECOS

CITY           SKY/WX    TMP DP  RH WIND       PRES   REMARKS
ALPINE         CLOUDY    49  38  66 N15G21    30.27R
DRYDEN           N/A     64  45  49 N21G29    30.05R
EL PASO        MOCLDY    55  39  54 E15G22    30.15R
FORT STOCKTON  CLOUDY    52  40  63 NW22      30.21R
GUADALUPE PASS NOT AVBL
MARFA          CLEAR     46  38  73 N21       30.19R WCI  38
PECOS          CLOUDY    55  39  54 N16G23    30.25R
$$

DALLAS/FORT WORTH METROPLEX

CITY           SKY/WX    TMP DP  RH WIND       PRES   REMARKS
DFW AIRPORT    CLOUDY    65  56  72 NW15      30.05R
FTW MEACHAM    CLOUDY    65  57  75 N6        30.06R
DAL-EXECUTIVE  CLOUDY    65  55  70 NW5       30.06R
GRAND PRAIRIE  PTCLDY    66  54  63 CALM      30.08R
ADDISON        CLOUDY    66  54  63 N3        30.06S
MESQUITE       CLOUDY    61  55  82 CALM      30.05R
LANCASTER      CLOUDY    62  58  87 CALM      30.06R
$$

NORTH CENTRAL TEXAS

CITY           SKY/WX    TMP DP  RH WIND       PRES   REMARKS
SHRMAN/DENISON CLOUDY    59  50  73 N9G16     30.10R
GAINESVILLE    CLOUDY    55  48  75 N17       30.12R
BRIDGEPORT     CLOUDY    56  48  74 NW12G20   30.17R
DENTON         CLOUDY    62  53  72 N12       30.08R
WAXAHACHIE     PTSUNNY   61  55  79 CALM      30.08R
GRANBURY       CLOUDY    65  56  75 W8        30.10R
$$

WESTERN NORTH TEXAS

CITY           SKY/WX    TMP DP  RH WIND       PRES   REMARKS
WICHITA FALLS  LGT RAIN  50  44  80 N18G26    30.19R
VERNON         CLOUDY    49  43  81 N16       30.25R THUNDER
BRECKENRIDGE   CLOUDY    55  44  66 N17G25    30.17R
COMANCHE       CLOUDY    64  59  85 NW6       30.09S
$$

CENTRAL AND SOUTH CENTRAL TEXAS

CITY           SKY/WX    TMP DP  RH WIND       PRES   REMARKS
AUSTIN/BERGSTM PTCLDY    55  54  96 SW5       30.05R
WACO           CLOUDY    59  55  87 CALM      30.05S
HILLSBORO      CLOUDY    60  57  88 CALM      30.05R
TEMPLE         PTCLDY    58  57  97 N6        30.07R
KILLEEN-GRAY   NOT AVBL
FORT HOOD      PTCLDY    59  57  94 N7        30.04R FOG
GEORGETOWN     CLEAR     58  55  90 NW3       30.08R
LAGO VISTA     FAIR      66  53  63 W7        30.08R
SAN MARCOS     CLEAR     54  51  90 NW5       30.07R
NEW BRAUNFELS  PTCLDY    52  51  97 NW7       30.06R
RANDOLPH AFB   CLEAR     56  53  92 N5        30.06R
SAN ANTONIO    PTCLDY    60  57  89 CALM      30.06R
STINSON        PTCLDY    63  60  90 CALM      30.04R
PLEASANTON     NOT AVBL
LA GRANGE      PTCLDY    59  58  97 CALM      30.04R
GIDDINGS       SUNNY     55  54  96 S3        30.05S
$$

EAST TEXAS

CITY           SKY/WX    TMP DP  RH WIND       PRES   REMARKS
PARIS          MOCLDY    58  50  75 NW7       30.07R
CLARKSVILLE    NOT AVBL
TYLER          CLOUDY    60  56  86 CALM      30.05R
LONGVIEW       CLOUDY    54  54 100 SW3       30.04R
PALESTINE      CLOUDY    58  55  89 CALM      30.07S
NACOGDOCHES      N/A     51  50  96 CALM      30.07R
$$

TEXAS HILL COUNTRY AND EDWARDS PLATEAU

CITY           SKY/WX    TMP DP  RH WIND       PRES   REMARKS
LLANO          CLOUDY    59  54  82 CALM      30.11S
HORSESHOE BAY  FAIR      54  49  85 S3        30.08R
KERRVILLE      CLEAR     56  51  82 CALM      30.10R
FREDERICKSBRG  CLEAR     54  48  81 CALM      30.10S
ROCKSPRINGS    CLOUDY    64  54  68 VRB7      30.13R
HONDO          CLEAR     61  58  90 E8        30.05R
UVALDE         CLOUDY    62  55  75 NE9       30.04R
DEL RIO        CLEAR     66  55  67 E13G20    29.99R
$$

SOUTHEAST TEXAS

CITY           SKY/WX    TMP DP  RH WIND       PRES   REMARKS
COLLEGE STN    CLEAR     60  58  92 E6        30.04R
CALDWELL       SUNNY     58  57  98 SW3       30.04S
CROCKETT       MOSUNNY   57  54  88 NE3       30.08S
BRENHAM        CLEAR     60  60 100 CALM      30.05S
HUNTSVILLE     PTCLDY    61  58  90 CALM      30.05R
CONROE         CLEAR     54  54 100 CALM      30.05R
HOUSTON BUSH   FAIR      61  60  97 CALM      30.04S
HOUSTON HOBBY  FAIR      61  61 100 SE7       30.04S
PERLAND        FAIR      62  61  96 CALM      30.06S
WHARTON        SUNNY     58  58  99 CALM      30.06S FOG
$$

THE UPPER TEXAS COAST

CITY           SKY/WX    TMP DP  RH WIND       PRES   REMARKS
ORANGE         FOG       56  56 100 CALM      30.06F VSB 3/4
PORT ARTHUR    FAIR      56  56 100 CALM      30.04S
GALVESTON      FAIR      66  65  96 CALM      30.07R
ANGLETON       FOG       62  60  93 CALM      30.06S VSB 3/4
BAY CITY       FOG       58  58 100 CALM      30.06R VSB<1/4
$$

TEXAS COASTAL BEND, RIO GRANDE PLAINS DEEP SOUTH TEXAS

CITY           SKY/WX    TMP DP  RH WIND       PRES   REMARKS
VICTORIA       FOG       64  64 100 CALM      30.06R VSB 1/4
BEEVILLE       DRZL/FOG  62  62 100 E3        30.03R VSB<1/4
ROCKPORT         N/A     67  66  97 SE6       30.03R
PORT ARANSAS   NOT AVBL
PORT LAVACA    FOG       62  61  97 CALM      30.06R VSB 1/4
CORPUS CHRISTI PTCLDY    64  64 100 SE7       30.02R
KINGSVILLE NAS FOG       62  61  96 E5        30.01  VSB 1/2
COTULLA        CLOUDY    65  60  84 SE9       30.01R
LAREDO         PTCLDY    71  63  75 SE6       30.00R
BROWNSVILLE    MOCLDY    71  68  90 E3        30.01R
PORT ISABEL    MOCLDY    73  67  81 SE9       30.00R
HEBBRONVILLE   SUNNY     63  61  93 CALM      30.03R
MCALLEN        MOCLDY    73  68  84 E9        30.00R
WESLACO        NOT AVBL
FALFURRIAS     SUNNY     64  62  94 E3        30.01S
EDINBURG       CLOUDY    69  66  88 SE5       30.01R
$$




USA.gov is the U.S. government's official web portal to all federal, state and local government web resources and services.